DW6619 Manassas VA US current weather conditions

sailwx.info

Wind from 101

Air temperature 21.7° C
Dewpoint 13.6° C

Last reported at 2019-Aug-24 23:55 UTC.
Time now 2019-Aug-25 00:17 UTC

Location: N 38°45' W 077°28'.
View on Google Maps.

See reports from other nearby stations

  
Tides and Currents Weather Stations Pressure Air Temp Water Temp Dewpoint Dewpoint Depression Visibility Wind Speed Wind Dir Waves Ship Positions
date/time (UTC)wind fromknots sea level pressurealtimeterstation pressurevisibilityair tempwater tempwave heightnotes
2019-Aug-24 23:55 101 21.7
2019-Aug-24 23:50 107 0 gusting 1 22.2
2019-Aug-24 23:45 067 0 gusting 2 22.2
2019-Aug-24 23:40 090 0 gusting 2 22.2
2019-Aug-24 23:35 073 0 gusting 4 22.2
2019-Aug-24 23:25 198 22.2
2019-Aug-24 23:20 208 22.2
2019-Aug-24 23:15 208 0 gusting 1 22.2
2019-Aug-24 23:10 100 22.8
2019-Aug-24 23:05 100 22.8
2019-Aug-24 23:00 100 22.8
2019-Aug-24 22:55 100 22.8
2019-Aug-24 22:50 100 22.8
2019-Aug-24 22:45 057 22.8
2019-Aug-24 22:40 057 0 gusting 5 22.8
2019-Aug-24 22:35 096 1 gusting 5 22.8
2019-Aug-24 22:30 071 0 gusting 2 23.3
2019-Aug-24 22:20 059 0 gusting 2 23.3
2019-Aug-24 22:15 102 0 gusting 2 23.3
2019-Aug-24 22:10 076 0 gusting 2 23.9
2019-Aug-24 22:05 066 0 gusting 3 23.9
2019-Aug-24 22:00 063 0 gusting 3 23.9
2019-Aug-24 21:55 056 0 gusting 2 23.9
2019-Aug-24 21:50 075 0 gusting 2 23.9
2019-Aug-24 21:45 066 0 gusting 2 23.9
2019-Aug-24 21:40 244 0 gusting 2 24.4
2019-Aug-24 21:35 182 0 gusting 3 24.4
2019-Aug-24 21:30 042 0 gusting 3 24.4
2019-Aug-24 21:25 206 0 gusting 2 24.4
2019-Aug-24 21:20 070 0 gusting 2 24.4
2019-Aug-24 21:10 067 0 gusting 2 24.4
2019-Aug-24 21:05 044 0 gusting 3 24.4
2019-Aug-24 21:00 067 0 gusting 4 25.0
2019-Aug-24 20:55 046 0 gusting 4 25.0
2019-Aug-24 20:50 111 1 gusting 4 25.0
2019-Aug-24 20:45 069 1 gusting 5 25.0
2019-Aug-24 20:40 055 1 gusting 3 25.0
2019-Aug-24 20:35 109 1 gusting 4 25.0
2019-Aug-24 20:30 220 1 gusting 4 25.6
2019-Aug-24 20:25 101 0 gusting 5 25.6
2019-Aug-24 20:15 042 0 gusting 5 26.1
2019-Aug-24 20:10 120 0 gusting 4 26.1
2019-Aug-24 20:05 046 1 gusting 5 26.7
2019-Aug-24 20:00 077 0 gusting 5 26.7
2019-Aug-24 19:55 271 0 gusting 2 26.7
2019-Aug-24 19:50 037 0 gusting 2 26.7
2019-Aug-24 19:45 288 0 gusting 6 26.1
2019-Aug-24 19:40 082 1 gusting 6 26.1
2019-Aug-24 19:35 044 0 gusting 5 26.1
2019-Aug-24 19:30 014 2 gusting 5 26.1
2019-Aug-24 19:25 053 1 gusting 3 25.6
2019-Aug-24 19:20 038 0 gusting 3 25.6
2019-Aug-24 19:15 062 0 gusting 5 26.1
2019-Aug-24 19:10 057 2 gusting 5 26.1
2019-Aug-24 19:05 035 2 gusting 6 27.2
2019-Aug-24 19:00 089 2 gusting 6 27.2
2019-Aug-24 18:55 216 0 gusting 3 26.7
2019-Aug-24 18:50 056 0 gusting 4 26.7
2019-Aug-24 18:45 325 2 gusting 4 26.1
2019-Aug-24 18:40 086 1 gusting 4 25.6
2019-Aug-24 18:35 081 1 gusting 4 25.6
2019-Aug-24 18:30 336 0 gusting 5 26.1
2019-Aug-24 18:25 039 1 gusting 4 26.1
2019-Aug-24 18:20 065 1 gusting 5 26.1
2019-Aug-24 18:15 323 0 gusting 3 25.6
2019-Aug-24 18:10 149 1 gusting 3 25.6
2019-Aug-24 18:05 155 0 gusting 7 25.0
2019-Aug-24 18:00 012 2 gusting 7 25.0
2019-Aug-24 17:55 036 0 gusting 2 25.6
2019-Aug-24 17:50 065 0 gusting 2 25.6
2019-Aug-24 17:45 074 0 gusting 2 25.6
2019-Aug-24 17:40 055 0 gusting 4 25.0
2019-Aug-24 17:35 057 1 gusting 4 25.6
2019-Aug-24 17:30 067 1 gusting 7 25.6
2019-Aug-24 17:25 125 1 gusting 7 26.1
2019-Aug-24 17:20 042 1 gusting 5 26.1
2019-Aug-24 17:15 009 1 gusting 4 25.6
2019-Aug-24 17:10 101 1 gusting 6 25.6
2019-Aug-24 17:05 049 2 gusting 6 25.6
2019-Aug-24 16:55 067 0 gusting 6 26.1
2019-Aug-24 16:50 015 2 gusting 6 26.1
2019-Aug-24 16:45 315 1 gusting 6 25.6
2019-Aug-24 16:40 043 1 gusting 5 25.6
2019-Aug-24 16:35 073 2 gusting 5 25.6
2019-Aug-24 16:30 355 0 gusting 5 25.6
2019-Aug-24 16:25 111 1 gusting 7 25.6
2019-Aug-24 16:20 129 0 gusting 6 25.6
2019-Aug-24 16:15 080 1 gusting 7 25.6
2019-Aug-24 16:10 093 1 gusting 7 25.6
2019-Aug-24 16:05 168 1 gusting 5 25.6
2019-Aug-24 16:00 110 2 gusting 5 25.6
2019-Aug-24 15:55 017 1 gusting 5 25.6
2019-Aug-24 15:50 108 1 gusting 6 25.6
2019-Aug-24 15:45 144 1 gusting 6 25.0
2019-Aug-24 15:40 069 2 gusting 6 25.0
2019-Aug-24 15:35 117 2 gusting 5 25.0
2019-Aug-24 15:30 138 1 gusting 8 25.0
2019-Aug-24 15:25 146 1 gusting 8 25.0
2019-Aug-24 15:20 294 0 gusting 6 24.4
2019-Aug-24 15:10 042 1 gusting 3 23.9
2019-Aug-24 15:05 090 0 gusting 6 23.9
2019-Aug-24 15:00 117 1 gusting 6 23.9
2019-Aug-24 14:55 084 3 gusting 5 23.9
2019-Aug-24 14:50 150 1 gusting 6 23.3
2019-Aug-24 14:45 327 0 gusting 6 23.3
2019-Aug-24 14:40 063 2 gusting 6 23.3
2019-Aug-24 14:35 193 0 gusting 4 23.3
2019-Aug-24 14:30 056 1 gusting 4 22.8
2019-Aug-24 14:25 342 1 gusting 3 22.8
2019-Aug-24 14:20 076 0 gusting 3 22.2
2019-Aug-24 14:15 054 0 gusting 5 21.7
2019-Aug-24 14:10 096 1 gusting 6 21.7
2019-Aug-24 14:05 039 2 gusting 6 21.7
2019-Aug-24 13:55 053 0 gusting 5 21.1
2019-Aug-24 13:50 058 1 gusting 4 20.6
2019-Aug-24 13:45 050 1 gusting 5 20.0
2019-Aug-24 13:40 069 1 gusting 6 20.0
2019-Aug-24 13:35 071 1 gusting 6 19.4
2019-Aug-24 13:30 076 1 gusting 4 19.4
2019-Aug-24 13:25 185 0 gusting 6 18.9
2019-Aug-24 13:20 065 1 gusting 3 18.9
2019-Aug-24 13:15 085 1 gusting 4 18.3
2019-Aug-24 13:05 069 0 gusting 4 17.8
2019-Aug-24 13:00 070 1 gusting 5 17.8
2019-Aug-24 12:55 082 1 gusting 5 17.2
2019-Aug-24 12:50 107 0 gusting 3 17.2
2019-Aug-24 12:45 105 16.7
2019-Aug-24 12:40 117 0 gusting 1 16.7
2019-Aug-24 12:35 333 16.7
2019-Aug-24 12:30 332 16.1
2019-Aug-24 12:25 345 16.1
2019-Aug-24 12:20 335 16.1
2019-Aug-24 12:15 072 15.6
2019-Aug-24 12:05 066 15.6
2019-Aug-24 12:00 076 0 gusting 2 15.6
2019-Aug-24 11:55 317 15.6
2019-Aug-24 11:50 317 15.6
2019-Aug-24 11:40 317 15.0
2019-Aug-24 11:35 120 15.0
2019-Aug-24 11:30 120 15.0
2019-Aug-24 11:20 120 15.0
2019-Aug-24 11:15 120 15.0
2019-Aug-24 11:10 120 15.0
2019-Aug-24 11:05 120 15.0
2019-Aug-24 11:00 120 15.0
2019-Aug-24 10:55 120 15.0
2019-Aug-24 10:50 120 15.0
2019-Aug-24 10:45 120 15.0
2019-Aug-24 10:40 120 15.0
2019-Aug-24 10:35 120 15.0
2019-Aug-24 10:25 120 15.6
2019-Aug-24 10:20 120 15.6
2019-Aug-24 10:15 120 15.6
2019-Aug-24 10:10 120 15.6
2019-Aug-24 10:00 120 15.6
2019-Aug-24 09:55 120 15.6
2019-Aug-24 09:50 120 15.6
2019-Aug-24 09:45 120 15.6
2019-Aug-24 09:40 120 15.6
2019-Aug-24 09:35 120 16.1
2019-Aug-24 09:30 120 16.1
2019-Aug-24 09:25 120 16.1
2019-Aug-24 09:20 120 16.1
2019-Aug-24 09:15 120 16.1
2019-Aug-24 09:10 120 16.1
2019-Aug-24 09:05 120 16.1
2019-Aug-24 08:55 120 16.1
2019-Aug-24 08:50 120 16.1
2019-Aug-24 08:45 120 16.1
2019-Aug-24 08:40 123 16.1
2019-Aug-24 08:35 123 16.1
2019-Aug-24 08:30 123 16.1
2019-Aug-24 08:25 123 16.1
2019-Aug-24 08:20 123 16.1
2019-Aug-24 08:10 123 16.1
2019-Aug-24 08:05 123 16.1
2019-Aug-24 08:00 207 16.1
2019-Aug-24 07:55 207 16.1
2019-Aug-24 07:50 207 16.1
2019-Aug-24 07:45 207 16.1
2019-Aug-24 07:40 207 16.1
2019-Aug-24 07:35 207 16.1
2019-Aug-24 07:30 207 16.1
2019-Aug-24 07:25 207 16.7
2019-Aug-24 07:20 207 16.7
2019-Aug-24 07:15 207 16.7
2019-Aug-24 07:10 207 16.7
2019-Aug-24 07:05 207 16.7
2019-Aug-24 07:00 207 16.7
2019-Aug-24 06:55 207 16.7
2019-Aug-24 06:50 207 16.7
2019-Aug-24 06:45 207 16.7
2019-Aug-24 06:40 207 16.7
2019-Aug-24 06:35 207 16.7
2019-Aug-24 06:30 207 17.2
2019-Aug-24 06:25 207 17.2
2019-Aug-24 06:20 207 17.2
2019-Aug-24 06:15 207 17.2
2019-Aug-24 06:10 207 17.2
2019-Aug-24 06:05 207 17.2
2019-Aug-24 06:00 207 17.2
2019-Aug-24 05:55 207 17.2
2019-Aug-24 05:50 207 17.2
2019-Aug-24 05:45 207 17.2
2019-Aug-24 05:40 207 17.2
2019-Aug-24 05:35 207 17.2
2019-Aug-24 05:30 207 17.8
2019-Aug-24 05:20 207 17.8
2019-Aug-24 05:15 207 17.8
2019-Aug-24 05:10 207 17.8
2019-Aug-24 05:05 207 17.8
2019-Aug-24 05:00 207 17.8
2019-Aug-24 04:55 207 17.8
2019-Aug-24 04:50 207 17.8
2019-Aug-24 04:45 207 17.8
2019-Aug-24 04:35 207 17.8
2019-Aug-24 04:30 207 17.8
2019-Aug-24 04:25 207 17.8
2019-Aug-24 04:15 207 17.8
2019-Aug-24 04:10 207 17.8
2019-Aug-24 04:05 207 17.8
2019-Aug-24 04:00 207 17.8
2019-Aug-24 03:55 207 17.8
2019-Aug-24 03:50 207 17.8
2019-Aug-24 03:45 207 17.8
2019-Aug-24 03:40 207 17.8
2019-Aug-24 03:35 207 17.8
2019-Aug-24 03:25 207 17.8
2019-Aug-24 03:20 207 17.8
2019-Aug-24 03:15 207 17.8
2019-Aug-24 03:10 207 18.3
2019-Aug-24 03:05 207 18.3
2019-Aug-24 03:00 117 18.3
2019-Aug-24 02:55 117 18.3
2019-Aug-24 02:50 117 18.3
2019-Aug-24 02:45 117 18.3
2019-Aug-24 02:40 117 18.3
2019-Aug-24 02:35 117 18.3
2019-Aug-24 02:25 117 18.3
2019-Aug-24 02:20 117 18.3
2019-Aug-24 02:10 117 18.3
2019-Aug-24 02:05 117 18.3
2019-Aug-24 02:00 117 18.3
2019-Aug-24 01:55 117 18.3
2019-Aug-24 01:50 117 18.3
2019-Aug-24 01:45 117 18.3
2019-Aug-24 01:40 117 18.3
2019-Aug-24 01:35 117 18.3
2019-Aug-24 01:30 117 18.3
2019-Aug-24 01:25 117 18.3
2019-Aug-24 01:15 117 18.3
2019-Aug-24 01:10 117 18.3
2019-Aug-24 01:05 117 18.3
2019-Aug-24 01:00 206 18.3
2019-Aug-24 00:55 206 18.3
2019-Aug-24 00:50 206 18.3
2019-Aug-24 00:45 206 18.3
2019-Aug-24 00:40 206 18.3
2019-Aug-24 00:35 206 18.3
2019-Aug-24 00:30 206 18.3
2019-Aug-24 00:25 206 18.3
2019-Aug-24 00:20 108 18.3
2019-Aug-24 00:15 148 18.3
2019-Aug-24 00:05 148 18.3
2019-Aug-24 00:00 095 18.3
2019-Aug-23 23:55 095 18.9
2019-Aug-23 23:50 095 18.9
2019-Aug-23 23:45 095 18.9
2019-Aug-23 23:40 095 18.9
2019-Aug-23 23:35 105 18.9
2019-Aug-23 23:30 077 18.9
2019-Aug-23 23:25 077 18.9
2019-Aug-23 23:15 076 0 gusting 5 18.9
2019-Aug-23 23:10 071 1 gusting 5 18.9
2019-Aug-23 23:05 161 18.9
2019-Aug-23 23:00 114 18.9
2019-Aug-23 22:55 118 18.9
2019-Aug-23 22:50 115 0 gusting 5 19.4
2019-Aug-23 22:45 073 0 gusting 4 19.4
2019-Aug-23 22:40 113 19.4
2019-Aug-23 22:35 113 19.4
2019-Aug-23 22:25 076 0 gusting 1 19.4
2019-Aug-23 22:20 307 0 gusting 1 19.4
2019-Aug-23 22:15 126 19.4
2019-Aug-23 22:10 113 19.4
2019-Aug-23 22:05 045 0 gusting 3 19.4
2019-Aug-23 22:00 139 19.4
2019-Aug-23 21:55 298 0 gusting 6 19.4
2019-Aug-23 21:50 150 0 gusting 3 19.4
2019-Aug-23 21:45 049 0 gusting 3 19.4
2019-Aug-23 21:40 094 0 gusting 3 19.4
2019-Aug-23 21:35 196 19.4
2019-Aug-23 21:25 099 0 gusting 2 19.4
2019-Aug-23 21:20 214 19.4
2019-Aug-23 21:15 141 18.9
2019-Aug-23 21:10 121 0 gusting 4 18.9
2019-Aug-23 21:00 128 18.9
2019-Aug-23 20:55 166 0 gusting 3 18.9
2019-Aug-23 20:50 013 19.4
2019-Aug-23 20:45 005 0 gusting 5 19.4
2019-Aug-23 20:40 048 19.4
2019-Aug-23 20:35 100 19.4
2019-Aug-23 20:30 015 19.4
2019-Aug-23 20:25 355 19.4
2019-Aug-23 20:20 355 19.4
2019-Aug-23 20:15 058 19.4
2019-Aug-23 20:10 058 18.9
2019-Aug-23 20:00 090 18.9
2019-Aug-23 19:55 090 18.9
2019-Aug-23 19:50 090 0 gusting 2 18.9
2019-Aug-23 19:40 072 18.9
2019-Aug-23 19:30 061 0 gusting 3 18.9
2019-Aug-23 19:25 086 18.9
2019-Aug-23 19:20 044 18.9
2019-Aug-23 19:15 311 18.9
2019-Aug-23 19:10 101 0 gusting 3 19.4
2019-Aug-23 19:00 049 19.4
2019-Aug-23 18:55 049 19.4
2019-Aug-23 18:50 049 19.4
2019-Aug-23 18:45 049 18.9
2019-Aug-23 18:40 049 18.9
2019-Aug-23 18:35 049 18.9
2019-Aug-23 18:25 098 18.9
2019-Aug-23 18:20 175 18.9
2019-Aug-23 18:15 022 18.9
2019-Aug-23 18:10 089 18.9
2019-Aug-23 18:00 184 18.3
2019-Aug-23 17:55 084 0 gusting 2 18.3
2019-Aug-23 17:45 060 18.3
2019-Aug-23 17:40 049 18.9
2019-Aug-23 17:35 284 18.9
2019-Aug-23 17:30 030 18.9
2019-Aug-23 17:25 030 18.9
2019-Aug-23 17:20 035 18.9
2019-Aug-23 17:15 049 1 gusting 3 18.9
2019-Aug-23 17:10 081 0 gusting 5 18.9
2019-Aug-23 17:05 059 0 gusting 6 18.9
2019-Aug-23 17:00 058 0 gusting 6 18.9
2019-Aug-23 16:55 040 0 gusting 2 18.9
2019-Aug-23 16:50 198 0 gusting 6 18.9
2019-Aug-23 16:35 017 0 gusting 5 19.4
2019-Aug-23 16:30 071 0 gusting 8 19.4
2019-Aug-23 16:25 076 0 gusting 8 19.4
2019-Aug-23 16:20 054 0 gusting 3 19.4
2019-Aug-23 16:15 098 1 gusting 5 19.4
2019-Aug-23 16:10 102 2 gusting 5 19.4
2019-Aug-23 16:05 283 0 gusting 2 20.0
2019-Aug-23 16:00 271 0 gusting 4 20.0
2019-Aug-23 15:55 076 1 gusting 4 20.0
2019-Aug-23 15:50 094 0 gusting 5 20.6
2019-Aug-23 15:45 331 1 gusting 3 20.6
2019-Aug-23 15:40 083 0 gusting 4 21.1
2019-Aug-23 15:35 296 2 gusting 4 21.1
2019-Aug-23 15:30 009 0 gusting 3 21.1
2019-Aug-23 15:25 034 0 gusting 2 21.7
2019-Aug-23 15:20 066 0 gusting 2 21.7
2019-Aug-23 15:15 026 0 gusting 2 21.7
2019-Aug-23 15:10 141 0 gusting 2 21.7
2019-Aug-23 15:05 150 0 gusting 2 22.2
2019-Aug-23 15:00 013 22.2
2019-Aug-23 14:55 057 0 gusting 3 22.2
2019-Aug-23 14:50 348 0 gusting 3 22.2
2019-Aug-23 14:45 019 22.8
2019-Aug-23 14:40 085 22.8
2019-Aug-23 14:35 047 22.8
2019-Aug-23 14:30 091 23.3
2019-Aug-23 14:25 061 0 gusting 3 23.3
2019-Aug-23 14:20 111 0 gusting 1 23.3
2019-Aug-23 14:15 134 0 gusting 3 23.3
2019-Aug-23 14:10 160 1 gusting 5 23.3
2019-Aug-23 14:05 073 0 gusting 5 23.3
2019-Aug-23 14:00 071 1 gusting 3 23.3
2019-Aug-23 13:55 023 1 gusting 3 23.3
2019-Aug-23 13:50 087 0 gusting 4 23.3
2019-Aug-23 13:45 074 0 gusting 4 23.9
2019-Aug-23 13:40 077 0 gusting 9 23.9
2019-Aug-23 13:35 350 1 gusting 6 23.9
2019-Aug-23 13:30 083 1 gusting 6 23.9
2019-Aug-23 13:25 072 0 gusting 4 23.9
2019-Aug-23 13:20 340 2 gusting 5 23.9
2019-Aug-23 13:15 046 0 gusting 6 23.9
2019-Aug-23 13:10 047 2 gusting 6 23.9
2019-Aug-23 13:05 086 2 gusting 7 23.9
2019-Aug-23 13:00 049 2 gusting 7 23.9
2019-Aug-23 12:55 049 1 gusting 5 23.9
2019-Aug-23 12:50 069 2 gusting 5 23.3
2019-Aug-23 12:45 096 0 gusting 5 23.3
2019-Aug-23 12:40 059 2 gusting 5 23.3
2019-Aug-23 12:35 074 1 gusting 3 23.3
2019-Aug-23 12:30 180 0 gusting 3 23.3
2019-Aug-23 12:25 080 0 gusting 5 23.3
2019-Aug-23 12:20 081 1 gusting 6 23.3
2019-Aug-23 12:15 046 1 gusting 6 23.3
2019-Aug-23 12:10 082 0 gusting 3 22.8
2019-Aug-23 12:05 340 1 gusting 3 22.8
2019-Aug-23 12:00 101 22.8
2019-Aug-23 11:55 057 0 gusting 3 22.8
2019-Aug-23 11:50 053 1 gusting 3 22.8
2019-Aug-23 11:45 108 0 gusting 3 22.2
2019-Aug-23 11:40 079 0 gusting 3 22.2
2019-Aug-23 11:35 111 1 gusting 3 22.2
2019-Aug-23 11:30 061 22.2
2019-Aug-23 11:25 059 22.2
2019-Aug-23 11:20 057 1 gusting 6 22.2
2019-Aug-23 11:15 073 22.2
2019-Aug-23 11:10 072 22.2
2019-Aug-23 11:05 213 22.2
2019-Aug-23 11:00 213 22.2
2019-Aug-23 10:55 213 22.2
2019-Aug-23 10:50 213 22.2
2019-Aug-23 10:45 213 22.2
2019-Aug-23 10:40 213 22.2
2019-Aug-23 10:35 213 22.2
2019-Aug-23 10:30 213 22.2
2019-Aug-23 10:25 213 22.2
2019-Aug-23 10:20 213 22.2
2019-Aug-23 10:15 213 22.2
2019-Aug-23 10:10 213 22.2
2019-Aug-23 10:05 213 22.2
2019-Aug-23 10:00 213 21.7
2019-Aug-23 09:55 213 21.7
2019-Aug-23 09:50 213 21.7
2019-Aug-23 09:45 213 21.7
2019-Aug-23 09:40 213 21.7
2019-Aug-23 09:35 213 21.7
2019-Aug-23 09:30 213 21.7
2019-Aug-23 09:25 213 21.7
2019-Aug-23 09:20 213 21.7
2019-Aug-23 09:15 213 21.7
2019-Aug-23 09:10 213 21.7
2019-Aug-23 09:05 213 21.7
2019-Aug-23 09:00 213 21.7
2019-Aug-23 08:55 213 21.7
2019-Aug-23 08:50 213 21.7
2019-Aug-23 08:45 213 21.7
2019-Aug-23 08:40 213 22.2
2019-Aug-23 08:35 213 22.2
2019-Aug-23 08:30 213 22.2
2019-Aug-23 08:25 213 22.2
2019-Aug-23 08:20 213 22.2
2019-Aug-23 08:15 213 22.2
2019-Aug-23 08:10 213 22.2
2019-Aug-23 08:05 213 22.2
2019-Aug-23 08:00 213 22.2
2019-Aug-23 07:55 213 22.2
2019-Aug-23 07:50 213 22.2
2019-Aug-23 07:45 213 22.2
2019-Aug-23 07:40 213 22.2
2019-Aug-23 07:30 213 22.2
2019-Aug-23 07:25 213 22.2
2019-Aug-23 07:20 213 22.2
2019-Aug-23 07:15 213 22.2
2019-Aug-23 07:10 213 22.2
2019-Aug-23 07:05 213 22.2
2019-Aug-23 07:00 213 22.2
2019-Aug-23 06:55 213 22.8
2019-Aug-23 06:50 213 22.8
2019-Aug-23 06:45 213 22.8
2019-Aug-23 06:40 213 22.8
2019-Aug-23 06:35 213 22.8
2019-Aug-23 06:30 213 22.8
2019-Aug-23 06:25 213 22.8
2019-Aug-23 06:20 213 22.8
2019-Aug-23 06:15 191 22.8
2019-Aug-23 06:10 191 22.8
2019-Aug-23 06:00 222 0 gusting 1 22.8
2019-Aug-23 05:55 210 0 gusting 1 22.8
2019-Aug-23 05:50 203 0 gusting 1 22.8
2019-Aug-23 05:45 204 23.3
2019-Aug-23 05:40 204 23.3
2019-Aug-23 05:35 204 0 gusting 2 23.3
2019-Aug-23 05:30 203 0 gusting 4 23.3
2019-Aug-23 05:25 218 2 gusting 4 23.3
2019-Aug-23 05:20 211 0 gusting 3 23.3
2019-Aug-23 05:15 207 1 gusting 3 23.9
2019-Aug-23 05:10 221 1 gusting 3 23.9
2019-Aug-23 05:05 202 1 gusting 2 23.9
2019-Aug-23 04:55 216 23.9
2019-Aug-23 04:50 216 0 gusting 1 23.9
2019-Aug-23 04:45 216 23.9
2019-Aug-23 04:40 216 1 gusting 3 23.9
2019-Aug-23 04:35 282 0 gusting 3 24.4
2019-Aug-23 04:30 212 0 gusting 2 24.4
2019-Aug-23 04:25 202 0 gusting 1 24.4
2019-Aug-23 04:15 190 0 gusting 1 24.4
2019-Aug-23 04:10 190 0 gusting 3 24.4
2019-Aug-23 04:05 182 1 gusting 3 24.4
2019-Aug-23 04:00 225 0 gusting 3 24.4
2019-Aug-23 03:55 193 0 gusting 3 24.4
2019-Aug-23 03:50 211 0 gusting 3 24.4
2019-Aug-23 03:45 211 0 gusting 5 24.4
2019-Aug-23 03:40 221 1 gusting 5 24.4
2019-Aug-23 03:35 190 1 gusting 3 25.0
2019-Aug-23 03:30 188 0 gusting 4 25.0
2019-Aug-23 03:25 199 2 gusting 4 25.0
2019-Aug-23 03:20 227 1 gusting 3 25.0
2019-Aug-23 03:15 287 1 gusting 4 25.0
2019-Aug-23 03:05 204 0 gusting 3 25.0
2019-Aug-23 03:00 221 0 gusting 4 25.0
2019-Aug-23 02:55 200 1 gusting 5 25.0
2019-Aug-23 02:50 190 1 gusting 4 25.0
2019-Aug-23 02:45 196 1 gusting 3 25.0
2019-Aug-23 02:40 233 1 gusting 3 25.0
2019-Aug-23 02:35 226 1 gusting 3 25.6
2019-Aug-23 02:30 213 1 gusting 3 25.6
2019-Aug-23 02:25 186 1 gusting 3 25.6
2019-Aug-23 02:20 194 0 gusting 3 25.6
2019-Aug-23 02:15 190 0 gusting 5 25.6
2019-Aug-23 02:10 203 0 gusting 5 25.6
2019-Aug-23 02:05 215 1 gusting 4 25.6
2019-Aug-23 02:00 205 1 gusting 4 26.1
2019-Aug-23 01:55 230 0 gusting 2 26.1
2019-Aug-23 01:50 204 0 gusting 3 26.1
2019-Aug-23 01:45 204 2 gusting 4 26.1
2019-Aug-23 01:40 173 0 gusting 3 26.1
2019-Aug-23 01:35 204 1 gusting 4 26.1
2019-Aug-23 01:30 203 1 gusting 4 26.7
2019-Aug-23 01:25 173 1 gusting 4 26.7
2019-Aug-23 01:20 211 1 gusting 6 26.7
2019-Aug-23 01:15 229 2 gusting 7 27.2
2019-Aug-23 01:10 213 2 gusting 5 27.2
2019-Aug-23 01:05 201 1 gusting 4 27.2
2019-Aug-23 01:00 221 1 gusting 4 27.2
2019-Aug-23 00:55 250 1 gusting 4 27.8
2019-Aug-23 00:50 205 1 gusting 4 27.8
2019-Aug-23 00:45 225 1 gusting 5 27.8
2019-Aug-23 00:40 223 1 gusting 5 28.3
2019-Aug-23 00:35 194 1 gusting 6 28.3
2019-Aug-23 00:30 212 2 gusting 7 28.3
2019-Aug-23 00:25 253 1 gusting 7 28.9
2019-Aug-23 00:20 220 2 gusting 7 28.9
2019-Aug-23 00:15 178 1 gusting 6 28.9
2019-Aug-23 00:10 172 2 gusting 6 29.4
2019-Aug-23 00:05 182 1 gusting 5 29.4
2019-Aug-23 00:00 213 2 gusting 5 29.4